[[{"header":{"parameterUnit":"m.s-1","parameterCategory":1,"la1":30.2991,"la2":30.254,"lo1":-89.0895,"lo2":-89.0444,"dy":0.0017,"dx":0.0017,"nx":28,"ny":28,"refTime":"2025-08-30T21:00:00:Z","depth":0,"parameterNumber":2,"parameterNumberName":"U-component_of_WINDS"},"data":[0,0,0,0,0,0,0,0,0,0,0,0,0,0,0,0,0,0,0,0,0,0,0,0,0,0,0,0,0,0,0,0,0,0,0,0,0,0,0,0,0,0,0,0,0,0,0,0,0,0,0,0,0,0,0,0,0,0,-4.2827,-4.2828,0,-4.2896,-4.2897,-4.2898,-4.2829,-4.2826,-4.2824,-4.2821,-4.2893,-4.2898,-4.2902,0,0,0,0,0,0,0,0,0,0,0,0,0,-4.2639,-4.2642,-4.2827,-4.2828,-4.2829,-4.2896,-4.2897,-4.2898,-4.283,-4.2826,-4.2823,-4.282,-4.2892,-4.2897,-4.2903,0,0,0,0,0,0,0,0,0,0,0,0,0,-4.2715,-4.2644,-4.2827,-4.2803,-4.2801,-4.2896,-4.2897,-4.2898,-4.283,-4.2826,-4.2822,-4.2818,-4.289,-4.2897,-4.2903,-4.3025,0,0,-4.2924,-4.2926,0,0,0,0,0,0,0,0,-4.2711,-4.2722,-4.2806,-4.2805,-4.2803,-4.285,-4.2857,-4.2941,-4.2831,-4.2819,-4.2821,-4.2816,-4.2882,-4.2889,-4.2911,-4.3029,-4.3032,-4.2924,-4.2928,-4.2931,-4.2933,0,0,0,0,0,0,0,-4.2706,-4.2719,-4.2854,-4.2807,-4.2806,-4.2789,-4.2796,-4.2872,-4.2873,-4.282,-4.2815,-4.2824,-4.2881,-4.2905,-4.2912,-4.3033,-4.2924,-4.293,-4.2934,-4.2937,-4.3255,-4.3259,0,0,0,0,0,0,-4.2703,-4.2715,-4.2852,-4.2856,-4.2746,-4.2796,-4.2803,-4.2839,-4.2872,-4.2873,-4.2828,-4.2821,-4.2896,-4.2905,-4.2915,-4.3061,-4.2931,-4.2937,-4.2941,-4.3251,-4.3256,-4.3261,0,0,0,0,0,0,-4.2699,-4.2716,-4.2849,-4.2785,-4.28,-4.2804,-4.2844,-4.2842,-4.2866,-4.2877,-4.2877,-4.2852,-4.2893,-4.2905,-4.2998,-4.3062,-4.294,-4.2946,-4.3245,-4.3252,-4.3258,-4.3353,0,0,0,0,0,0,-4.2694,-4.2715,-4.2761,-4.2786,-4.2804,-4.2932,-4.2848,-4.2847,-4.2878,-4.287,-4.29,-4.2902,-4.2891,-4.2989,-4.3005,-4.3069,-4.2951,-4.324,-4.3248,-4.3256,-4.3344,-4.3362,-4.3377,0,0,0,0,0,-4.2688,-4.2785,-4.2763,-4.278,-4.2861,-4.2935,-4.2946,-4.2931,-4.2883,-4.293,-4.2937,-4.2901,-4.3052,-4.2999,-4.3017,-4.3084,-4.3236,-4.3246,-4.3256,-4.3337,-4.3358,-4.3377,0,0,0,0,0,0,-4.2767,-4.2787,-4.2764,-4.2872,-4.2903,-4.2924,-4.2982,-4.2954,-4.2999,-4.2989,-4.2969,-4.2977,-4.3076,-4.3089,-4.3029,-4.3204,-4.3136,-4.315,-4.3192,-4.3213,-4.3229,-4.3224,-4.2957,0,0,0,0,0,-4.2797,-4.2855,-4.287,-4.2964,-4.298,-4.2979,-4.301,-4.2996,-4.3027,-4.304,-4.3054,-4.3086,-4.314,-4.3177,-4.3228,-4.3345,-4.3352,-4.34,-4.3417,-4.343,-4.3443,-4.3507,-4.3529,-4.3294,-4.3294,-4.3294,0,0,-4.286,-4.2878,-4.2916,-4.298,-4.3002,-4.3064,-4.299,-4.3058,-4.3103,-4.305,-4.3139,-4.3151,-4.3185,-4.3291,-4.3338,-4.3305,-4.351,-4.3443,-4.3454,-4.3459,-4.352,-4.3542,-4.3562,-4.3301,-4.3299,-4.3298,0,0,-4.3006,-4.3025,-4.3106,-4.3129,-4.3163,-4.3162,-4.3181,-4.3207,-4.3213,-4.3301,-4.3263,-4.3317,-4.3412,-4.3439,-4.3464,-4.3622,-4.359,-4.3639,-4.3726,-4.3789,-4.3807,-4.3824,-4.3881,-4.3901,-4.3651,-4.3651,-4.3652,0,-4.308,-4.317,-4.3151,-4.3222,-4.3252,-4.3206,-4.3289,-4.3313,-4.3362,-4.3384,-4.3346,-4.3464,-4.3484,-4.3596,-4.3635,-4.3657,-4.3679,-4.3635,-4.3806,-4.3822,-4.3837,-4.3891,-4.3913,-4.3657,-4.3656,-4.3656,-4.3655,0,-4.326,-4.3323,-4.3384,-4.3433,-4.347,-4.3546,-4.354,-4.3579,-4.3562,-4.3565,-4.3657,-4.3679,-4.3734,-4.376,-4.3744,-4.387,-4.3849,-4.3809,-4.374,-4.3866,-4.3916,-4.3937,-4.3665,-4.3663,-4.3662,-4.366,0,0,-4.3458,-4.3495,-4.3518,-4.354,-4.3575,-4.3624,-4.3698,-4.3752,-4.3787,-4.3823,-4.3886,-4.3967,-4.3931,-4.396,-4.3947,-4.4002,-4.4126,-4.3955,-4.3955,-4.3987,-4.4269,-4.43,-4.4324,-4.4105,-4.4109,-4.4112,-4.4266,0,-4.3605,-4.3734,-4.372,-4.3844,-4.3902,-4.386,-4.3926,-4.3955,-4.3959,-4.4011,-4.4016,-4.4075,-4.4021,-4.4039,-4.4092,-4.41,-4.4183,-4.4089,-4.4165,-4.4168,-4.4159,-4.435,-4.4382,-4.4527,-4.4286,-4.4289,-4.4292,0,-4.3794,-4.3837,-4.3967,-4.3993,-4.4017,-4.4076,-4.4125,-4.4174,-4.4206,-4.4206,-4.4239,-4.4217,-4.4293,-4.4223,-4.4328,-4.4264,-4.4295,-4.4304,-4.4309,-4.4316,-4.4238,-4.4364,-4.4572,-4.4594,-4.4323,-4.432,-4.4318,0,-4.3927,-4.4017,-4.4106,-4.4126,-4.4159,-4.4201,-4.4217,-4.4245,-4.4279,-4.4322,-4.4344,-4.4395,-4.4423,-4.4464,-4.4456,-4.4406,-4.4565,-4.4493,-4.4568,-4.4568,-4.4603,-4.4601,-4.4821,-4.4622,-4.4621,-4.4621,-4.4621,0,-4.4094,-4.4175,-4.4166,-4.4221,-4.4311,-4.4294,-4.4384,-4.4395,-4.4421,-4.4478,-4.4444,-4.4499,-4.4485,-4.4539,-4.4534,-4.4623,-4.4635,-4.4638,-4.4636,-4.4642,-4.4642,-4.4662,-4.4652,-4.4627,-4.4625,-4.4624,-4.4623,0,-4.4258,-4.4255,-4.4349,-4.4373,-4.4381,-4.4446,-4.4467,-4.4519,-4.4521,-4.4594,-4.461,-4.4614,-4.4677,-4.4673,-4.4743,-4.4739,-4.485,-4.4835,-4.4839,-4.4836,-4.4911,-4.4904,-4.5152,-4.5184,-4.4963,-4.4965,-4.4967,0,-4.4365,-4.4426,-4.4456,-4.4492,-4.4511,-4.4569,-4.4603,-4.4589,-4.4626,-4.4668,-4.4716,-4.4775,-4.4822,-4.4923,-4.4933,-4.4987,-4.4975,-4.5058,-4.4982,-4.4987,-4.4977,-4.4974,-4.4981,-4.5073,-4.5075,-4.5077,-4.5079,0,-4.4555,-4.4551,-4.4601,-4.4652,-4.4694,-4.4733,-4.4768,-4.48,-4.479,-4.4833,-4.4896,-4.4933,-4.5005,-4.5064,-4.5116,-4.5133,-4.5106,-4.5102,-4.5122,-4.513,-4.513,-4.5132,-4.488,-4.5097,-4.5095,-4.5094,-4.5093,-4.5092,-4.4695,-4.4748,-4.4778,-4.4835,-4.486,-4.4895,-4.4946,-4.4954,-4.5006,-4.5064,-4.5053,-4.5124,-4.5156,-4.5222,-4.5245,-4.5301,-4.5271,-4.53,-4.5308,-4.5316,-4.5325,-4.512,-4.531,-4.531,-4.5309,-4.5309,-4.5308,0,-4.4885,-4.4902,-4.4955,-4.5006,-4.5052,-4.502,-4.5058,-4.5099,-4.5162,-4.5194,-4.524,-4.5314,-4.5372,-4.5386,-4.5442,-4.5485,-4.5474,-4.55,-4.5497,-4.5502,-4.5347,-4.5325,-4.5509,-4.5509,-4.5508,-4.5508,-4.5508,-4.5508,-4.4989,-4.5077,-4.5077,-4.5178,-4.5195,-4.5264,-4.5289,-4.5321,-4.5346,-4.5429,-4.5477,-4.5486,-4.5512,-4.5569,-4.5622,-4.5625,-4.5647,-4.568,-4.5678,-4.5533,-4.5513,-4.5494,-4.5472,-4.5684,-4.5685,-4.5828,-4.5829,-4.583]},{"header":{"parameterUnit":"m.s-1","parameterCategory":1,"la1":30.2991,"la2":30.254,"lo1":-89.0895,"lo2":-89.0444,"dy":0.0017,"dx":0.0017,"nx":28,"ny":28,"refTime":"2025-08-30T21:00:00:Z","depth":0,"parameterNumber":3,"parameterNumberName":"V-component_of_WINDS"},"data":[0,0,0,0,0,0,0,0,0,0,0,0,0,0,0,0,0,0,0,0,0,0,0,0,0,0,0,0,0,0,0,0,0,0,0,0,0,0,0,0,0,0,0,0,0,0,0,0,0,0,0,0,0,0,0,0,0,0,-1.2687,-1.2687,0,-1.2683,-1.2683,-1.2683,-1.2641,-1.264,-1.2639,-1.2638,-1.2635,-1.2636,-1.2636,0,0,0,0,0,0,0,0,0,0,0,0,0,-1.2659,-1.266,-1.2687,-1.2687,-1.2687,-1.2683,-1.2683,-1.2683,-1.2641,-1.264,-1.2639,-1.2637,-1.2634,-1.2635,-1.2637,0,0,0,0,0,0,0,0,0,0,0,0,0,-1.2665,-1.266,-1.2687,-1.2666,-1.2664,-1.2683,-1.2683,-1.2683,-1.2641,-1.264,-1.2638,-1.2637,-1.2634,-1.2635,-1.2637,-1.2677,0,0,-1.2641,-1.2641,0,0,0,0,0,0,0,0,-1.2665,-1.2666,-1.2669,-1.2667,-1.2665,-1.2661,-1.2672,-1.2681,-1.2642,-1.265,-1.2638,-1.2636,-1.2645,-1.2645,-1.2648,-1.2677,-1.2677,-1.2641,-1.2642,-1.2642,-1.2643,0,0,0,0,0,0,0,-1.2664,-1.2666,-1.2686,-1.2669,-1.2667,-1.2656,-1.2655,-1.2674,-1.2656,-1.2649,-1.2646,-1.2646,-1.2643,-1.2647,-1.2647,-1.2677,-1.2641,-1.2642,-1.2643,-1.2643,-1.2738,-1.274,0,0,0,0,0,0,-1.2667,-1.2666,-1.2686,-1.2686,-1.2661,-1.2658,-1.2657,-1.2664,-1.2656,-1.2653,-1.2647,-1.2644,-1.2645,-1.2646,-1.2647,-1.2694,-1.2642,-1.2644,-1.2644,-1.2736,-1.2738,-1.274,0,0,0,0,0,0,-1.2666,-1.2669,-1.2686,-1.2675,-1.2676,-1.266,-1.2668,-1.2665,-1.2668,-1.2655,-1.2651,-1.2654,-1.2644,-1.2645,-1.267,-1.2693,-1.2644,-1.2645,-1.2734,-1.2737,-1.2739,-1.2787,0,0,0,0,0,0,-1.2666,-1.2669,-1.2684,-1.2676,-1.2677,-1.2709,-1.267,-1.2666,-1.267,-1.2666,-1.266,-1.2657,-1.2643,-1.2668,-1.2671,-1.2694,-1.2646,-1.2732,-1.2735,-1.2738,-1.2784,-1.2791,-1.2798,0,0,0,0,0,-1.2665,-1.2698,-1.2685,-1.2688,-1.2695,-1.271,-1.2711,-1.2693,-1.2672,-1.2687,-1.2679,-1.2658,-1.269,-1.2671,-1.2674,-1.2698,-1.2731,-1.2734,-1.2738,-1.2781,-1.279,-1.2798,0,0,0,0,0,0,-1.2711,-1.2697,-1.2682,-1.2714,-1.2713,-1.2703,-1.2721,-1.2703,-1.2709,-1.2705,-1.2683,-1.2682,-1.271,-1.2706,-1.2685,-1.2736,-1.2707,-1.2711,-1.2738,-1.2746,-1.2753,-1.2754,-1.2648,0,0,0,0,0,-1.2724,-1.2737,-1.2724,-1.2753,-1.2754,-1.2738,-1.2743,-1.2729,-1.2728,-1.2728,-1.2721,-1.2721,-1.2731,-1.2738,-1.2747,-1.2783,-1.2781,-1.2801,-1.2808,-1.2814,-1.2818,-1.2837,-1.2845,-1.2753,-1.2753,-1.2753,0,0,-1.2753,-1.2747,-1.2756,-1.2762,-1.276,-1.2774,-1.2738,-1.2754,-1.2764,-1.2731,-1.2753,-1.2748,-1.2747,-1.2777,-1.279,-1.2775,-1.2843,-1.2818,-1.2823,-1.2824,-1.2842,-1.285,-1.2858,-1.2755,-1.2755,-1.2754,0,0,-1.2812,-1.2808,-1.2832,-1.2831,-1.2828,-1.2817,-1.2823,-1.2815,-1.281,-1.2832,-1.2808,-1.2819,-1.2837,-1.2837,-1.2839,-1.2898,-1.2879,-1.2901,-1.2938,-1.2957,-1.2964,-1.2971,-1.2992,-1.3,-1.2905,-1.2906,-1.2906,0,-1.2848,-1.2867,-1.2847,-1.2864,-1.2868,-1.2837,-1.2861,-1.2861,-1.2862,-1.2865,-1.2848,-1.2869,-1.2866,-1.2896,-1.291,-1.2913,-1.2919,-1.2902,-1.2965,-1.2971,-1.2977,-1.2997,-1.3005,-1.2908,-1.2908,-1.2908,-1.2907,0,-1.2912,-1.2926,-1.2945,-1.2946,-1.2951,-1.2972,-1.2955,-1.2963,-1.2948,-1.2939,-1.2962,-1.2957,-1.2964,-1.297,-1.2956,-1.2998,-1.2989,-1.2968,-1.2938,-1.2989,-1.3007,-1.3014,-1.2912,-1.2911,-1.291,-1.291,0,0,-1.3,-1.2989,-1.2996,-1.2996,-1.2991,-1.3001,-1.3021,-1.3027,-1.3035,-1.3036,-1.3052,-1.3067,-1.3048,-1.3051,-1.3037,-1.3053,-1.31,-1.303,-1.303,-1.3044,-1.3146,-1.3162,-1.3171,-1.3087,-1.3088,-1.3089,-1.3146,0,-1.3057,-1.3089,-1.3071,-1.3106,-1.3119,-1.309,-1.3107,-1.3105,-1.3097,-1.3107,-1.3098,-1.3109,-1.3083,-1.3085,-1.3099,-1.3091,-1.312,-1.3086,-1.3102,-1.3103,-1.3104,-1.318,-1.3197,-1.3251,-1.3153,-1.3154,-1.3155,0,-1.3128,-1.3132,-1.3169,-1.316,-1.3165,-1.3181,-1.3185,-1.3194,-1.3192,-1.3185,-1.3188,-1.317,-1.3188,-1.3158,-1.3183,-1.3161,-1.3166,-1.3163,-1.3164,-1.3166,-1.3132,-1.3184,-1.3268,-1.3276,-1.3166,-1.3165,-1.3165,0,-1.319,-1.3204,-1.3227,-1.3228,-1.3219,-1.3231,-1.3228,-1.3224,-1.3229,-1.3233,-1.3236,-1.3242,-1.3245,-1.325,-1.3234,-1.3214,-1.3262,-1.323,-1.3257,-1.3258,-1.3269,-1.3269,-1.3356,-1.3272,-1.3272,-1.3271,-1.3271,0,-1.3256,-1.3279,-1.3255,-1.327,-1.3295,-1.3274,-1.3299,-1.3293,-1.329,-1.3303,-1.3278,-1.3291,-1.3268,-1.3279,-1.3266,-1.329,-1.3291,-1.3286,-1.3283,-1.3289,-1.329,-1.3293,-1.3289,-1.3274,-1.3273,-1.3273,-1.3272,0,-1.3329,-1.3314,-1.3338,-1.3327,-1.3325,-1.3344,-1.3335,-1.3348,-1.3338,-1.3355,-1.3357,-1.3342,-1.3353,-1.3337,-1.3346,-1.3338,-1.337,-1.3361,-1.3371,-1.3368,-1.3396,-1.3394,-1.3489,-1.35,-1.3408,-1.3409,-1.341,0,-1.3373,-1.339,-1.3381,-1.3388,-1.3386,-1.3397,-1.3402,-1.3381,-1.3387,-1.3386,-1.34,-1.3408,-1.3414,-1.3434,-1.3423,-1.3431,-1.3421,-1.3454,-1.3422,-1.3428,-1.3423,-1.3422,-1.3424,-1.3461,-1.3462,-1.3463,-1.3463,0,-1.3452,-1.3443,-1.3451,-1.3456,-1.3462,-1.3465,-1.3466,-1.3473,-1.3452,-1.346,-1.3471,-1.3475,-1.3485,-1.3494,-1.3499,-1.3496,-1.3477,-1.3473,-1.348,-1.3487,-1.3492,-1.349,-1.3389,-1.3471,-1.3471,-1.347,-1.347,-1.3469,-1.3512,-1.3526,-1.3522,-1.3531,-1.353,-1.3531,-1.3543,-1.3534,-1.3543,-1.3549,-1.3536,-1.355,-1.3547,-1.3551,-1.355,-1.3561,-1.3547,-1.3557,-1.3559,-1.3562,-1.3567,-1.349,-1.3562,-1.3561,-1.3561,-1.3561,-1.3561,0,-1.359,-1.3586,-1.3595,-1.3597,-1.3604,-1.3584,-1.3585,-1.3592,-1.3605,-1.3604,-1.361,-1.3623,-1.3631,-1.3622,-1.3629,-1.3639,-1.3631,-1.3642,-1.3641,-1.3641,-1.3579,-1.3572,-1.3649,-1.3649,-1.3649,-1.3649,-1.3649,-1.3649,-1.3632,-1.3654,-1.3645,-1.3667,-1.3663,-1.3676,-1.3678,-1.3679,-1.3678,-1.3693,-1.37,-1.3693,-1.3689,-1.3695,-1.3703,-1.3699,-1.3704,-1.3718,-1.3712,-1.3654,-1.3645,-1.3637,-1.3631,-1.3719,-1.3719,-1.3774,-1.3774,-1.3775]}]]